Location: Laterina
(43.5167°N, 11.7167°E)
Time: 03:32:57
(UTC+00:00)

Cosmos 1707 - Pass Details

Date: 17 January 2021
Orbit: 516 x 528 km, 82.5° (Epoch: 03 March)

Event Time Altitude Azimuth Distance (km) Brightness Sun altitude
Rises 16:52:16 0° 228° (SW) 2,636 7.8 -8.6°
Reaches altitude 10° 16:55:07 10° 252° (WSW) 1,752 7.1 -9.1°
Maximum altitude 16:57:28 15° 290° (WNW) 1,441 5.7 -9.5°
Drops below altitude 10° 16:59:49 10° 327° (NNW) 1,757 5.6 -9.9°
Sets 17:02:42 0° 351° (N) 2,649 6.2 -10.4°
